DMC3-FM2

Last updated on Sun Dec 21 2025 00:02:44 GMT+0000 (Coordinated Universal Time)

1 40716U 15032B 25354.60616440 .00001067 00000+0 12976-3 0 9996 2 40716 97.6749 222.9611 0004707 295.4696 64.6033 14.85456206563393
UTC large
Height (km)
Speed (km/s)
/
Latitude / Longitude
Inclination (degrees)
Orbital Period (minutes)
Azimuth
Elevation
Range (km)
Doppler Factor

Next 0 passes for location: London (51.5072 / 0.1276)

Sorry there are no passes over London.